GFSGBSN_700_temp_021.txt.gz
Temp
10 10 10 11 11 11 11 11 11 11 11 11 12 12 12 12 13 12 12 12 13 13 12 12 12 12 12 12 12 10 11 11 11 12 12 13 13 14 13 14 14 14 15 14 14 14 14
10 10 10 10 10 10 10 10 10 10 11 11 11 11 12 12 13 13 13 13 13 13 12 12 12 12 13 13 12 10 10 11 11 11 12 12 13 13 13 13 14 14 14 14 14 14 14
9 9 9 9 9 9 9 9 9 9 10 10 10 10 11 11 12 12 13 13 13 13 12 12 13 13 13 12 12 11 11 11 11 11 12 12 12 12 12 13 14 14 14 14 14 15 14
8 8 8 8 8 9 9 9 9 9 9 10 10 10 10 10 11 11 12 13 13 14 13 12 13 13 14 12 13 13 12 12 11 10 11 10 11 11 11 12 12 13 13 13 15 15 15
7 8 8 8 8 8 9 9 9 9 9 10 10 10 10 10 10 11 11 12 13 13 13 13 13 13 14 14 13 12 12 12 11 11 10 10 9 10 10 10 11 11 13 14 14 15 14
7 7 7 8 8 8 8 9 9 9 9 9 10 10 10 10 10 11 11 11 12 13 13 13 13 12 14 13 14 13 12 11 11 10 9 9 8 9 9 9 11 11 11 12 13 14 14
7 7 7 8 8 8 8 8 9 9 9 9 10 10 10 10 10 11 10 11 11 12 12 12 13 14 13 14 13 13 12 11 10 10 10 9 9 9 9 10 10 12 12 13 14 14 14
7 7 7 7 7 7 7 8 8 8 8 8 9 9 10 10 10 10 10 10 10 10 13 12 12 14 12 12 13 13 12 11 10 10 9 9 9 9 10 11 11 12 11 12 13 14 14
6 7 7 7 6 6 6 6 6 6 6 6 7 8 9 9 9 8 8 8 9 8 10 14 13 14 12 12 12 13 12 12 11 10 10 10 10 9 10 10 10 11 11 12 13 13 14
6 6 5 5 5 5 5 4 4 4 4 4 4 5 6 7 7 6 6 6 7 6 8 12 13 13 13 11 11 11 12 12 10 10 10 9 9 11 10 9 10 10 12 11 11 12 14
5 5 5 4 4 3 3 3 3 3 2 2 3 3 3 3 5 4 5 5 5 4 8 10 9 10 11 11 11 12 11 10 10 11 9 10 10 10 9 11 10 10 10 12 11 12 12
4 4 4 3 3 3 3 2 2 2 2 2 2 2 2 2 2 3 3 3 3 4 6 8 8 9 10 9 10 10 11 10 10 10 10 10 10 10 11 11 10 10 10 11 11 12 13
4 3 3 3 3 2 2 2 2 1 1 1 0 -0 1 0 1 1 2 2 2 3 7 7 7 7 8 9 8 9 10 9 9 9 9 9 10 10 10 9 10 10 11 12 12 13 14
3 2 2 2 2 2 1 1 0 0 -0 -0 -1 -1 -1 -2 -1 0 1 1 1 3 3 5 5 6 7 8 8 9 9 8 9 10 10 10 9 10 11 10 10 10 11 13 13 15 15
3 2 2 1 1 0 -0 -0 -1 -1 -2 -2 -2 -2 -2 -2 -3 -1 -1 -1 -0 -2 -0 1 4 5 6 7 8 8 8 8 8 9 11 10 11 11 10 11 10 10 10 12 12 12 13
2 1 1 0 -0 -0 -1 -1 -2 -2 -3 -3 -3 -3 -3 -3 -3 -3 -2 -3 -3 -3 -3 -1 -0 2 2 5 7 7 7 7 8 8 10 10 10 11 11 10 11 11 11 10 11 13 13
1 0 -0 -1 -1 -1 -2 -2 -3 -3 -4 -4 -4 -4 -5 -4 -4 -4 -5 -5 -4 -4 -4 -3 -2 -2 -1 1 3 5 4 5 6 7 8 9 10 11 10 10 11 10 10 11 12 12 15
0 -0 -1 -1 -1 -2 -2 -3 -4 -4 -4 -5 -5 -6 -6 -6 -6 -6 -6 -6 -6 -5 -4 -4 -3 -3 -2 -0 1 2 3 3 4 5 7 8 9 10 10 10 11 11 11 11 12 11 12
0 -1 -1 -1 -2 -2 -3 -3 -4 -5 -5 -5 -6 -6 -6 -6 -6 -6 -6 -6 -6 -6 -5 -5 -4 -3 -3 -2 0 0 1 2 2 3 5 7 8 9 10 10 11 11 11 11 12 13 12
-0 -1 -1 -2 -2 -3 -3 -4 -4 -5 -6 -6 -6 -6 -6 -7 -7 -7 -7 -6 -6 -7 -6 -6 -5 -4 -3 -3 -1 -1 -1 0 1 2 3 4 5 8 11 11 10 10 10 11 11 12 12
-0 -1 -1 -2 -2 -3 -4 -5 -5 -5 -6 -7 -7 -7 -7 -7 -7 -7 -8 -7 -7 -7 -7 -7 -5 -6 -5 -4 -3 -2 -1 -0 -0 1 2 3 3 4 5 7 6 7 9 9 9 11 12
-1 -1 -2 -2 -3 -4 -4 -5 -5 -6 -6 -7 -8 -8 -8 -8 -8 -8 -8 -8 -8 -8 -7 -7 -7 -6 -6 -6 -6 -5 -3 -2 -1 -0 0 1 2 3 3 4 4 5 7 8 8 9 9
-1 -1 -2 -3 -3 -4 -4 -5 -6 -6 -7 -7 -8 -8 -9 -8 -8 -8 -8 -8 -8 -8 -8 -8 -7 -7 -7 -7 -5 -5 -4 -3 -2 -1 -1 0 1 2 4 3 4 5 7 7 7 8 9
-1 -2 -2 -3 -3 -4 -5 -6 -7 -6 -7 -7 -8 -9 -9 -9 -9 -9 -9 -9 -8 -8 -9 -7 -7 -7 -6 -6 -5 -5 -4 -4 -3 -2 -1 -1 -0 0 2 2 5 7 8 8 9 10 10
-2 -2 -3 -3 -4 -4 -5 -5 -6 -7 -7 -7 -8 -8 -9 -8 -8 -8 -9 -8 -8 -8 -8 -7 -7 -7 -7 -6 -6 -5 -4 -3 -2 -1 -2 -1 -2 -0 2 3 5 6 6 7 8 9 10
-2 -2 -3 -3 -4 -4 -4 -5 -5 -6 -7 -7 -8 -8 -8 -8 -7 -8 -8 -9 -9 -8 -8 -7 -8 -7 -7 -7 -6 -6 -3 -3 -2 -2 -1 -1 -2 -2 0 3 5 6 7 6 7 7 9
-2 -2 -3 -3 -3 -4 -3 -4 -5 -5 -6 -7 -7 -8 -8 -8 -6 -8 -8 -9 -8 -9 -9 -8 -7 -8 -7 -6 -7 -6 -5 -5 -3 -2 -2 -3 -4 -3 -2 0 3 4 6 6 7 9 9
-1 -2 -2 -3 -3 -3 -3 -4 -4 -5 -5 -6 -6 -7 -8 -7 -6 -6 -7 -8 -9 -9 -9 -8 -8 -7 -8 -7 -7 -7 -6 -5 -4 -4 -3 -3 -3 -3 -3 -1 0 3 5 4 7 8 9
-1 -1 -2 -2 -3 -3 -3 -3 -3 -4 -5 -6 -6 -6 -7 -7 -6 -6 -6 -6 -6 -7 -8 -7 -8 -8 -8 -7 -7 -7 -6 -6 -5 -5 -4 -4 -3 -2 -2 -0 1 2 4 5 6 7 9

GFSGBSN_700_temp_024.txt.gz
Temp
9 9 9 9 9 9 9 9 9 9 10 10 10 11 11 12 12 12 13 13 12 12 13 12 13 12 12 12 13 11 12 12 12 12 12 12 13 12 11 12 12 14 13 13 13 14 13
8 8 9 9 9 9 9 9 9 9 9 10 10 10 10 11 11 12 12 13 13 13 13 13 12 12 13 13 12 11 11 12 12 12 12 11 12 10 11 11 12 13 12 13 13 14 14
8 8 8 8 8 9 9 9 9 9 10 10 10 10 10 10 11 11 12 12 13 13 13 13 13 12 13 12 12 12 12 11 11 11 11 12 11 9 11 11 12 12 12 13 14 14 15
7 8 8 8 8 8 9 9 9 9 10 10 10 10 10 10 11 11 11 12 12 12 13 13 12 12 14 12 13 13 12 12 11 10 10 9 9 9 10 11 12 13 13 14 15 15 15
7 7 8 8 8 8 8 8 9 9 9 10 10 10 10 10 10 11 11 11 12 12 12 13 12 12 13 13 13 12 12 12 11 10 10 8 8 9 9 10 12 13 15 15 16 15 15
7 7 7 7 7 7 7 7 7 8 8 9 9 10 10 10 10 11 11 11 12 12 12 12 12 11 13 13 13 12 12 11 11 10 10 10 8 9 10 11 13 15 15 16 16 16 15
7 7 7 7 6 6 6 6 6 6 6 7 7 8 9 9 9 10 10 11 11 12 12 12 12 12 13 13 12 13 12 11 10 10 9 9 9 10 11 11 13 15 15 15 16 16 15
6 6 6 6 6 5 5 5 5 5 5 5 6 6 7 7 7 8 8 9 9 9 12 12 12 12 11 12 12 12 11 11 10 9 9 9 10 11 11 12 12 13 14 15 15 15 15
5 5 5 5 5 4 4 4 4 4 4 4 4 4 4 5 5 6 6 6 7 7 9 13 13 13 13 11 12 13 12 11 11 9 10 11 11 11 11 11 11 12 13 14 15 15 14
5 5 4 4 4 4 3 3 3 3 3 2 2 3 3 3 4 4 4 5 5 5 7 9 12 12 13 11 10 11 12 11 9 10 10 11 12 11 11 11 11 12 12 13 14 15 16
5 4 4 4 4 3 3 3 3 3 2 2 2 2 2 2 2 2 2 3 3 3 9 9 9 9 11 10 10 11 11 8 10 10 10 11 11 11 11 11 11 12 13 13 13 14 14
5 4 4 4 3 3 3 2 2 2 2 2 1 1 1 1 0 1 1 1 2 3 9 8 7 8 8 9 8 8 9 8 9 10 11 11 11 12 11 11 11 12 12 13 12 14 16
4 4 4 3 3 2 2 1 1 0 0 1 1 1 0 -0 -1 0 1 0 1 5 7 7 6 6 7 8 7 7 7 8 9 10 11 11 11 11 11 11 11 11 12 14 15 16 17
4 4 3 3 2 1 1 1 0 -0 -0 -0 -1 -1 -2 -2 -2 -1 -1 -2 2 5 3 2 2 4 6 8 7 8 8 9 9 11 13 12 12 11 12 12 12 11 12 16 16 18 18
4 3 2 1 1 1 0 0 -0 -1 -1 -1 -2 -2 -3 -3 -3 -2 -2 -1 2 -1 -3 -2 2 5 7 6 8 7 8 9 10 11 13 13 13 13 12 12 12 12 12 14 17 17 18
3 2 2 2 1 1 0 -0 -1 -1 -1 -2 -2 -3 -3 -4 -4 -3 -4 -1 -2 -4 -4 -2 1 2 5 6 6 7 9 9 10 10 11 12 14 13 12 12 12 13 13 14 15 16 17
2 2 2 1 0 0 -0 -1 -1 -1 -2 -2 -3 -4 -4 -4 -4 -4 -3 -4 -5 -5 -5 -3 -1 -0 1 3 4 7 8 5 8 9 9 10 12 14 13 12 13 12 13 13 15 16 18
2 2 2 1 -0 0 -1 -2 -2 -2 -2 -3 -3 -5 -5 -4 -5 -5 -5 -6 -6 -5 -5 -4 -3 -2 -0 0 2 4 5 3 3 3 6 9 11 13 13 13 13 13 13 13 15 15 15
1 1 1 1 -0 -1 -1 -2 -3 -3 -3 -3 -4 -4 -5 -5 -6 -6 -6 -6 -6 -6 -6 -6 -5 -4 -3 -1 1 2 2 0 2 3 6 7 9 12 13 13 12 13 13 13 14 15 15
1 1 0 -0 -0 -1 -2 -2 -3 -4 -5 -5 -5 -6 -6 -7 -7 -7 -7 -6 -6 -6 -6 -6 -5 -5 -4 -1 -0 0 1 0 1 1 3 6 9 11 15 14 13 13 13 13 14 14 16
0 0 -0 -1 -2 -2 -2 -3 -3 -5 -5 -5 -6 -8 -7 -7 -8 -8 -8 -7 -7 -7 -7 -6 -6 -6 -6 -4 -1 -1 -1 -0 0 1 2 4 7 7 10 9 10 13 13 13 14 14 15
-0 -0 -1 -2 -2 -2 -3 -3 -4 -4 -6 -6 -7 -7 -8 -7 -8 -8 -7 -7 -7 -7 -7 -7 -7 -7 -7 -6 -6 -5 -4 -1 -0 -1 1 2 6 5 7 7 7 9 10 12 13 14 14
-1 -1 -1 -2 -2 -3 -3 -4 -4 -5 -6 -6 -7 -8 -8 -8 -8 -8 -7 -8 -8 -8 -7 -7 -7 -7 -6 -7 -6 -6 -5 -4 -3 -3 -1 1 4 4 8 8 8 8 9 9 10 11 11
-0 -1 -1 -2 -2 -3 -3 -3 -4 -5 -6 -7 -7 -7 -8 -8 -8 -8 -9 -9 -8 -8 -8 -8 -8 -7 -7 -6 -5 -5 -4 -4 -3 -2 -2 -0 1 4 7 6 8 10 11 10 10 10 10
-0 -1 -1 -2 -2 -3 -3 -3 -4 -5 -5 -6 -7 -7 -8 -8 -8 -8 -8 -8 -9 -9 -8 -8 -8 -8 -7 -6 -5 -3 -2 -2 -2 -2 -2 -1 0 3 5 6 9 9 8 8 9 10 11
-0 -0 -1 -2 -2 -3 -3 -3 -4 -5 -4 -6 -6 -7 -7 -7 -7 -8 -8 -9 -8 -8 -8 -8 -8 -8 -8 -6 -5 -4 0 0 1 -0 -1 -1 -1 1 4 5 8 9 8 7 7 9 10
-0 -0 -1 -2 -2 -2 -3 -3 -3 -4 -4 -5 -5 -6 -7 -7 -6 -6 -7 -8 -8 -8 -8 -8 -8 -8 -7 -7 -5 -3 -2 -2 -0 1 0 -0 -1 0 2 4 6 7 5 5 7 8 6
-0 -0 -1 -1 -2 -2 -2 -2 -3 -4 -4 -4 -5 -6 -6 -6 -5 -6 -7 -7 -7 -8 -8 -8 -8 -7 -7 -7 -5 -4 -3 -3 -2 -0 0 0 0 1 1 2 4 5 4 5 5 5 6
-0 -0 -1 -1 -1 -1 -1 -2 -2 -3 -4 -4 -5 -5 -6 -6 -5 -6 -6 -6 -6 -7 -7 -7 -8 -7 -7 -7 -6 -5 -5 -4 -3 -2 -1 -1 -1 1 2 2 2 3 3 3 5 5 7

GFSGBSN_700_temp_030.txt.gz
Temp
8 8 8 8 9 9 9 9 9 10 10 10 10 10 10 11 11 11 12 12 12 12 13 13 13 13 13 13 14 13 13 13 13 12 13 13 10 11 12 13 14 15 15 14 14 16 17
8 8 8 8 8 9 9 9 9 9 9 9 10 10 10 11 11 11 11 12 12 12 12 13 13 13 13 14 13 13 13 13 13 13 13 13 11 11 12 13 15 15 16 15 15 16 17
8 8 8 8 8 8 8 8 8 9 9 9 9 10 10 10 11 11 11 12 12 12 12 12 13 13 14 15 13 12 13 13 13 13 13 13 11 11 12 13 14 16 16 16 16 17 17
7 7 7 7 7 7 7 8 8 8 8 8 9 9 9 10 10 11 11 11 12 12 12 12 12 13 14 14 13 14 12 13 12 12 12 11 11 12 13 13 15 15 16 16 17 17 17
7 6 6 6 6 6 7 7 7 7 7 7 7 8 8 8 9 10 10 11 11 12 12 12 12 13 14 14 14 14 13 13 12 11 12 11 11 12 13 13 14 15 16 16 17 17 17
6 6 6 6 6 6 6 6 6 7 7 7 7 7 8 8 8 8 9 10 10 11 11 11 12 12 13 14 14 13 13 12 10 10 10 11 12 12 13 13 14 15 16 17 17 18 18
6 6 6 6 6 6 6 6 7 7 7 7 7 7 7 7 7 7 8 8 8 9 11 11 9 13 10 11 10 13 13 11 10 10 10 11 12 12 13 14 14 16 17 17 18 18 18
6 6 5 5 5 5 6 6 6 6 6 6 6 6 6 6 6 6 7 6 6 5 9 10 11 12 13 11 10 10 11 10 10 11 11 11 11 13 13 14 14 15 16 18 18 19 19
5 5 5 5 5 5 5 5 5 5 5 5 5 5 6 5 5 5 4 5 5 4 3 12 12 12 14 11 12 10 11 11 11 11 12 12 13 13 13 14 14 15 16 17 19 19 19
5 5 5 5 5 5 5 5 5 5 5 5 5 4 5 5 5 5 4 4 4 4 2 8 12 13 13 11 11 12 10 11 11 12 12 12 13 13 13 14 15 15 16 17 18 19 19
5 5 5 5 5 4 4 4 4 4 4 4 4 3 3 3 3 4 3 3 3 2 5 12 11 9 10 10 12 12 11 10 11 12 12 13 13 14 14 14 15 15 16 16 17 18 19
4 4 4 4 4 4 3 3 3 3 4 4 3 3 3 2 2 -0 0 1 0 1 5 9 10 8 10 9 11 12 11 10 11 13 13 13 14 14 15 15 15 16 16 17 17 17 19
4 4 4 4 3 3 3 2 2 2 3 3 3 3 2 2 1 -0 0 -1 1 2 6 6 4 5 6 9 10 11 11 11 11 11 13 13 14 14 15 16 15 16 16 17 17 18 18
4 4 3 3 3 2 2 2 1 1 2 2 2 2 2 1 -2 -0 -2 -0 1 2 1 1 2 3 5 8 10 10 11 11 11 12 14 14 14 15 15 16 16 16 16 17 16 18 18
3 3 3 2 2 2 1 1 1 1 1 2 2 1 -2 -2 -2 -2 -1 1 -1 -1 -1 -0 1 4 4 5 6 10 11 12 12 12 13 15 15 15 16 16 16 16 16 17 18 18 19
3 3 2 2 2 1 1 1 1 1 1 1 0 0 -2 -2 -1 -2 -0 1 -0 -1 -1 -0 0 1 0 1 1 3 10 13 12 12 12 14 15 16 16 16 16 16 16 16 17 18 19
2 2 2 1 1 1 0 0 -0 0 0 0 0 -1 -1 -1 -1 -1 0 0 -1 -1 -1 -1 -0 -0 -1 -3 -2 0 5 11 10 13 12 13 14 16 16 16 16 16 17 16 17 18 20
2 1 1 1 0 0 0 -0 -0 -0 -0 -0 -1 -2 -1 -2 -1 0 -0 -1 -2 -2 -1 -1 -1 -0 -2 -3 -3 -2 0 1 5 6 10 12 13 14 17 17 16 16 16 17 17 18 19
1 1 1 1 0 -0 0 -1 -1 -1 -1 -1 -2 -2 -1 -2 -1 -1 -1 -2 -2 -3 -2 -2 -2 -2 -2 -3 -3 -3 -2 -0 1 4 6 10 12 14 15 17 16 16 16 16 17 17 18
1 1 1 0 -0 -0 -0 -1 -1 -2 -2 -2 -3 -3 -3 -2 -2 -2 -2 -2 -3 -3 -3 -3 -2 -2 -2 -3 -4 -4 -3 -1 1 3 5 7 9 13 16 16 17 16 16 16 17 17 18
1 1 0 0 -1 -1 -1 -1 -2 -2 -3 -3 -5 -5 -5 -5 -4 -4 -3 -3 -5 -4 -3 -3 -3 -4 -3 -3 -4 -3 -3 -2 -1 1 4 7 9 11 14 16 17 17 16 17 17 18 18
1 1 0 -0 -1 -1 -1 -1 -2 -2 -3 -3 -5 -6 -5 -4 -5 -4 -3 -4 -4 -3 -3 -4 -3 -3 -3 -3 -4 -4 -4 -3 -3 -0 1 5 8 10 12 14 15 16 17 17 17 17 18
1 0 -0 -0 -1 -1 -1 -1 -2 -2 -3 -3 -4 -6 -6 -5 -6 -5 -4 -4 -4 -4 -4 -4 -4 -4 -3 -3 -4 -3 -3 -3 -3 -2 1 3 5 8 10 12 14 15 16 17 17 17 18
1 0 -0 -1 -1 -1 -1 -1 -2 -2 -3 -4 -4 -5 -6 -5 -6 -5 -5 -5 -5 -5 -5 -5 -4 -5 -4 -4 -3 -3 -2 -1 -1 -1 1 2 3 5 8 11 12 14 15 15 17 17 17
1 0 -0 -1 -1 -1 -1 -1 -2 -2 -3 -3 -4 -5 -6 -5 -6 -6 -5 -6 -6 -5 -5 -5 -4 -5 -4 -4 -3 -2 -1 0 1 1 1 2 3 5 8 10 12 13 14 14 15 17 17
1 0 -0 -1 -0 -1 -1 -1 -1 -2 -3 -3 -4 -5 -6 -6 -4 -6 -5 -6 -5 -6 -5 -4 -5 -5 -4 -3 -4 -2 -0 2 3 2 2 2 3 3 7 10 12 13 13 14 14 14 14
0 0 -0 -1 -0 -0 -1 -1 -1 -2 -3 -3 -4 -4 -5 -5 -5 -5 -5 -5 -5 -6 -6 -5 -6 -5 -5 -5 -4 -2 -0 0 4 4 4 3 3 4 5 7 10 9 11 12 14 9 10
1 0 0 -0 -0 0 -0 -1 -1 -2 -2 -2 -3 -4 -4 -5 -4 -5 -5 -5 -6 -6 -6 -6 -6 -5 -5 -5 -4 -4 -3 -0 1 2 2 4 3 4 5 6 7 7 9 9 6 6 9
1 1 1 1 0 -0 -1 -1 -1 -1 -1 -2 -2 -3 -4 -4 -5 -5 -5 -5 -6 -5 -6 -6 -6 -6 -5 -5 -5 -5 -3 -2 -1 1 2 2 3 4 4 6 6 5 5 4 5 5 6

GFSGBSN_700_temp_033.txt.gz
Temp
8 8 8 8 9 9 9 9 9 9 9 10 10 10 11 11 11 11 11 12 12 12 12 13 13 14 14 14 15 13 13 13 13 13 13 13 13 13 12 11 12 12 13 14 16 15 14
8 8 8 8 8 8 8 8 8 8 8 9 9 9 9 10 10 11 11 11 12 12 12 12 13 13 14 15 14 13 13 13 13 13 13 13 13 13 11 11 12 13 14 15 15 16 14
7 7 7 7 7 7 7 8 8 8 8 8 8 8 8 9 9 9 10 11 11 12 12 12 12 13 14 15 14 13 14 13 13 13 13 13 13 11 11 11 12 13 14 14 14 14 16
7 7 7 7 7 7 7 7 7 7 8 8 8 8 8 8 8 8 9 9 10 11 12 12 12 13 15 14 14 14 14 14 13 13 12 12 12 11 11 12 13 13 14 14 14 16 16
7 6 6 6 6 6 7 7 7 7 7 7 8 8 8 8 8 8 8 9 9 10 11 12 12 12 14 14 15 14 14 14 13 12 12 12 11 11 11 12 12 13 14 15 16 16 17
6 6 6 6 6 6 7 7 7 7 7 7 7 7 7 7 7 7 7 8 9 9 10 10 11 11 12 12 13 12 12 12 12 12 11 11 10 11 11 12 12 13 14 15 16 17 17
6 6 6 6 6 6 6 6 6 6 6 6 7 7 6 7 6 6 7 8 8 8 9 8 9 11 12 12 11 11 11 11 10 10 10 11 10 11 11 12 12 13 14 15 16 17 17
6 6 6 5 5 6 6 6 6 6 6 6 7 6 6 6 6 6 6 6 6 5 9 10 12 11 12 11 12 12 10 10 10 10 9 10 10 11 11 12 12 13 14 15 16 17 17
5 5 5 5 5 5 5 5 6 6 6 6 6 6 6 5 5 5 5 5 5 6 6 11 10 11 12 10 11 12 9 10 10 10 10 10 12 11 11 12 13 13 14 15 16 17 18
5 5 5 5 5 5 5 5 5 5 5 5 5 5 5 6 5 5 4 5 5 5 4 9 8 8 7 10 10 11 12 9 10 10 10 10 11 12 12 12 13 13 14 15 15 16 17
5 5 4 4 4 4 4 5 5 5 4 4 4 4 4 5 4 3 4 4 4 2 3 8 7 6 7 9 10 11 10 9 10 10 10 11 11 12 12 13 13 14 14 15 15 16 16
4 4 4 4 4 4 4 4 4 4 4 3 3 4 3 3 2 3 3 3 2 2 4 5 3 3 4 6 7 10 10 10 10 10 11 11 12 12 12 13 13 14 14 15 15 16 15
4 4 4 4 4 3 3 3 3 3 3 3 3 3 3 3 2 2 2 0 1 2 3 3 0 1 3 3 6 7 9 10 10 10 11 12 12 13 13 13 14 14 14 14 13 14 14
4 4 4 4 3 3 3 3 3 2 2 3 2 3 2 2 1 -0 -0 0 1 2 1 1 0 1 1 1 2 4 8 10 10 10 11 12 12 12 13 14 14 14 15 14 11 12 14
3 3 3 3 3 2 2 2 2 2 2 2 2 2 0 1 -0 -1 -1 -0 1 0 0 -0 -0 0 0 -0 -2 -2 1 6 10 10 11 11 12 13 13 14 14 15 15 15 16 17 16
3 2 2 2 2 2 2 2 1 1 1 1 2 1 -1 -1 -1 -1 -1 -0 0 -0 -1 -1 -1 -1 -0 -1 -3 -3 -1 3 7 8 10 11 12 13 14 14 15 15 15 15 16 12 12
2 2 2 2 2 1 1 1 1 1 1 1 1 1 -1 -1 -0 -1 -1 0 -0 -1 -1 -2 -1 -1 -0 -3 -3 -4 -3 0 1 4 6 8 11 13 14 14 14 16 16 16 16 16 11
2 2 1 1 1 1 0 0 0 0 1 0 0 0 -1 -2 -1 -0 -0 -1 -1 -1 -2 -2 -2 -1 -2 -2 -3 -4 -4 -4 -2 -2 1 5 8 11 12 15 15 15 16 16 15 15 16
2 1 1 1 1 1 0 0 -0 -0 -0 -1 -1 -1 -1 -2 -2 -2 -2 -2 -2 -2 -3 -3 -2 -2 -2 -2 -3 -4 -4 -4 -3 -3 -2 2 7 11 12 12 14 15 16 16 16 16 16
2 1 1 1 1 0 0 -0 -1 -1 -1 -1 -1 -2 -2 -2 -3 -4 -3 -3 -3 -3 -3 -4 -3 -3 -3 -3 -4 -4 -4 -4 -3 -3 -1 -1 4 6 10 13 14 15 16 16 16 16 16
2 1 1 0 0 -0 -0 -1 -1 -1 -2 -2 -2 -3 -4 -4 -3 -3 -4 -4 -4 -4 -4 -3 -3 -3 -4 -4 -4 -4 -4 -4 -3 -2 -1 -0 4 7 10 13 14 15 16 16 16 16 16
1 1 1 0 0 -0 -1 -1 -1 -1 -2 -2 -3 -4 -4 -4 -4 -5 -5 -4 -4 -4 -4 -4 -4 -4 -3 -3 -5 -4 -4 -5 -5 -2 -3 1 2 6 10 12 12 13 16 16 16 16 16
1 1 0 0 -0 -1 -1 -1 -1 -2 -2 -2 -3 -3 -5 -4 -4 -5 -5 -5 -5 -5 -4 -4 -4 -4 -4 -4 -4 -4 -3 -3 -3 -4 -4 -2 1 4 8 11 12 13 14 16 16 16 17
1 0 0 -0 -0 -1 -1 -1 -1 -2 -2 -3 -3 -4 -5 -4 -5 -5 -5 -5 -5 -5 -5 -5 -4 -5 -4 -4 -4 -3 -3 -3 -3 -2 -3 -3 1 3 7 10 10 13 14 15 16 17 17
0 0 -0 -0 -0 -1 -1 -1 -1 -2 -2 -3 -4 -4 -5 -5 -5 -5 -5 -5 -5 -5 -5 -5 -5 -5 -5 -4 -4 -3 -2 -1 0 0 -1 -1 1 3 5 9 11 12 12 13 16 13 14
0 0 0 0 0 -0 -0 -1 -1 -2 -3 -3 -4 -4 -5 -5 -4 -5 -5 -5 -5 -5 -5 -5 -5 -5 -5 -5 -4 -4 -3 -1 -1 1 1 1 1 3 4 7 10 7 11 13 13 10 10
0 0 1 1 0 -0 -1 -1 -2 -2 -2 -2 -3 -4 -4 -5 -4 -5 -5 -5 -5 -5 -6 -6 -5 -5 -5 -5 -4 -3 -2 -2 -1 -1 -1 1 1 3 4 5 5 7 9 12 11 4 7
0 1 1 1 0 0 -0 -1 -1 -1 -1 -2 -2 -3 -4 -5 -4 -5 -5 -5 -5 -5 -6 -6 -5 -5 -5 -5 -5 -5 -4 -3 -2 -1 -1 2 2 2 4 4 2 2 5 6 4 4 6
1 1 1 1 1 0 -0 -0 -1 -0 -1 -1 -2 -3 -4 -4 -4 -4 -5 -5 -5 -5 -6 -6 -6 -6 -6 -6 -6 -5 -5 -4 -2 -2 -1 -0 -1 -1 0 0 -1 0 2 2 4 4 4

GFSGBSN_700_temp_036.txt.gz
Temp
8 8 8 8 8 8 8 8 8 8 8 8 9 9 9 9 9 10 10 11 11 12 12 13 13 13 13 14 14 13 13 13 13 13 13 12 12 13 13 13 11 12 14 13 12 13 14
7 7 7 7 7 8 8 8 8 8 8 8 8 8 8 8 9 9 9 9 10 11 12 12 13 13 14 14 13 13 13 13 13 13 13 12 13 13 13 13 11 14 15 14 12 13 14
7 7 7 7 7 7 8 8 8 8 8 8 8 8 8 8 8 8 9 9 10 11 11 12 13 13 14 14 13 13 13 13 12 13 13 12 12 11 12 12 13 13 12 12 13 13 13
7 7 7 7 7 7 7 7 7 7 7 8 8 8 8 8 8 8 9 9 9 9 11 11 12 13 14 13 13 13 13 13 14 13 12 11 11 11 11 12 12 11 11 12 13 14 14
6 6 6 6 6 7 7 7 7 7 7 7 8 8 8 8 8 8 8 9 9 9 10 10 11 12 14 13 13 12 13 13 12 12 12 11 10 10 10 10 11 12 11 12 13 14 14
6 6 6 6 6 6 6 6 7 7 7 7 7 7 7 7 7 8 8 8 8 9 9 11 11 11 12 11 12 12 13 11 12 11 10 11 10 10 10 10 10 11 12 12 13 14 14
6 6 6 6 6 6 6 6 6 6 6 7 7 7 7 7 7 7 8 8 9 10 9 9 8 10 11 9 10 11 10 10 10 9 11 11 10 10 12 11 11 11 12 13 14 15 15
6 6 6 5 5 5 5 6 6 6 6 6 7 7 7 6 7 6 6 6 5 5 8 9 7 6 8 8 10 11 9 8 9 10 9 10 10 13 11 11 11 11 12 13 14 15 15
5 5 5 5 5 5 5 5 5 6 6 6 6 6 7 6 6 6 5 5 5 6 8 8 8 7 7 7 8 9 8 8 9 9 9 10 11 11 11 11 11 11 12 13 13 16 15
5 5 5 5 4 5 5 5 5 5 5 5 5 6 5 6 6 5 4 4 5 5 6 6 7 6 5 5 5 8 7 7 8 9 9 9 11 11 10 10 11 11 12 13 13 13 13
5 5 5 4 4 4 5 5 5 5 4 4 4 4 4 5 5 4 4 4 5 5 3 5 5 4 5 4 3 7 7 7 7 8 9 9 10 10 11 12 11 11 12 13 13 13 14
5 4 4 4 4 4 4 4 4 4 4 4 4 4 4 5 3 2 3 3 4 3 2 3 3 3 6 5 5 5 5 6 7 8 9 9 10 11 11 11 11 11 12 13 13 13 12
4 4 4 4 4 4 4 3 3 3 3 4 3 4 4 3 2 2 2 3 2 1 2 2 2 2 1 1 4 5 4 4 5 8 8 9 10 11 11 11 11 11 12 12 11 12 11
4 4 3 3 3 3 3 3 3 3 2 3 3 3 3 1 1 1 1 1 1 1 0 0 0 -1 -0 -0 1 3 3 2 4 6 7 9 9 10 11 11 12 12 12 12 9 9 12
4 3 3 3 3 3 3 2 2 2 2 2 2 2 1 1 -0 -1 -1 -0 -0 -0 -1 -1 -1 -1 -1 -1 -1 -1 0 0 -1 -1 1 8 9 11 11 11 12 12 12 13 14 14 13
3 3 3 2 2 2 2 2 2 2 1 2 2 1 1 1 -1 -1 -1 -0 -1 -1 -1 -1 -2 -2 -2 -2 -2 -3 -2 -0 -1 -2 -3 3 6 11 11 12 12 13 13 13 13 10 10
3 3 2 2 2 2 2 1 1 1 1 1 1 1 1 -0 -0 -1 -1 -1 -2 -2 -2 -2 -2 -2 -2 -2 -3 -4 -4 -3 -3 -2 -2 -1 1 10 11 11 12 12 13 14 14 14 10
2 2 2 2 2 1 1 1 1 1 1 0 1 1 -0 -1 -1 -1 -1 -2 -2 -2 -2 -2 -2 -3 -3 -3 -3 -3 -4 -5 -4 -4 -3 -2 -1 5 10 12 12 13 13 14 14 12 14
2 2 2 1 1 1 1 0 0 0 0 0 -0 -0 -1 -1 -2 -2 -2 -2 -2 -3 -3 -3 -3 -3 -3 -3 -4 -4 -5 -4 -5 -5 -4 -3 -1 2 9 10 12 12 13 14 14 15 15
1 1 1 1 1 0 0 -0 -0 -0 -1 -1 -1 -1 -2 -3 -4 -4 -3 -3 -3 -3 -4 -3 -3 -4 -4 -3 -3 -4 -5 -5 -5 -5 -5 -4 -4 -3 1 9 11 12 13 13 15 14 14
2 2 1 0 0 -0 -1 -1 -1 -1 -1 -2 -2 -2 -3 -4 -3 -4 -5 -4 -5 -4 -4 -4 -4 -4 -4 -4 -4 -4 -4 -5 -6 -4 -4 -3 -2 0 1 3 8 11 13 14 14 15 15
1 1 0 -0 -0 -1 -1 -1 -1 -1 -1 -2 -2 -3 -3 -4 -5 -5 -4 -4 -5 -4 -5 -5 -5 -5 -5 -4 -5 -4 -4 -4 -5 -5 -4 -3 -1 -1 5 8 10 11 13 14 14 15 15
1 0 0 0 -0 -0 -0 -1 -1 -1 -1 -1 -3 -3 -4 -4 -4 -5 -5 -6 -5 -6 -5 -5 -5 -5 -5 -4 -4 -4 -4 -4 -5 -5 -4 -3 -3 -2 5 9 10 11 12 13 14 15 16
0 0 0 0 0 -0 -0 -1 -1 -1 -2 -2 -3 -4 -5 -4 -5 -5 -5 -5 -5 -5 -6 -5 -6 -5 -5 -5 -4 -4 -4 -3 -4 -5 -3 -3 -2 -1 4 8 9 9 10 11 13 13 14
0 0 0 0 0 0 -0 -1 -1 -1 -2 -2 -4 -4 -5 -5 -5 -5 -5 -5 -5 -5 -5 -5 -5 -5 -6 -5 -4 -4 -4 -3 -2 -2 -2 -3 -3 -0 3 5 10 11 10 9 8 8 10
0 0 0 1 1 -0 -0 -1 -1 -2 -2 -2 -3 -4 -4 -5 -4 -5 -5 -5 -5 -5 -5 -5 -5 -5 -5 -5 -4 -5 -5 -4 -2 -2 -3 -3 -3 -2 2 4 4 2 8 9 9 8 8
0 1 1 1 1 0 -0 -1 -1 -1 -1 -2 -2 -3 -4 -5 -4 -5 -5 -5 -5 -5 -6 -5 -5 -5 -5 -5 -5 -4 -4 -3 -3 -3 -3 -3 -0 2 2 3 2 2 6 8 6 3 4
1 1 1 1 1 0 -0 -1 -1 -1 -1 -2 -2 -3 -4 -5 -5 -5 -5 -5 -5 -5 -6 -6 -5 -5 -5 -6 -6 -6 -5 -4 -3 -4 -3 -2 -2 -1 1 0 0 0 2 2 1 2 3
2 2 1 1 0 0 0 0 -0 -0 -1 -2 -2 -3 -5 -5 -5 -5 -5 -5 -5 -6 -6 -6 -6 -6 -7 -6 -6 -6 -5 -5 -4 -4 -4 -3 -3 -3 -3 -2 -2 -1 -1 -1 0 1 3